RH
19 19 19 18 16 14 13 12 11 11 10 9 8 8 8 8 7 7 6 6 6 5 5 5 5 5 5 6 8 10 11 10 11 12 11 13 15 13 12 13 12 16 25 29 27 31 34 39 47 50 56 66 69 65 65 71 73 75 80 79 68 64 66 72 86 80 78 90 92 88 84 92 100 93 91 89 87 86 82 84 84 78 76 76 74 73 70 69
18 18 18 18 17 16 14 13 12 12 11 10 9 8 8 8 7 7 6 6 6 5 5 5 5 5 4 5 7 9 10 10 11 12 12 15 15 13 12 12 12 13 18 22 21 25 32 37 42 47 54 61 63 61 61 65 70 73 75 73 61 59 58 61 76 75 76 87 89 91 85 85 92 90 87 92 96 90 90 96 90 83 82 80 77 76 73 72
17 18 18 17 17 16 15 14 13 12 11 11 10 9 8 8 8 7 6 6 5 5 5 5 4 5 5 4 5 8 10 9 11 14 16 17 15 12 12 12 12 12 13 15 18 25 34 39 43 46 54 59 58 59 62 62 67 65 59 60 56 56 60 61 66 69 72 79 88 93 84 81 87 84 84 92 95 93 98 100 95 95 90 81 79 78 75 75
16 17 17 17 17 16 16 14 13 12 12 11 11 10 9 8 8 7 7 6 5 5 5 5 4 4 5 4 5 7 7 9 13 17 18 17 15 13 12 12 11 12 13 14 20 29 34 40 45 48 56 61 57 57 61 60 60 59 53 54 50 50 61 65 63 66 70 75 83 87 82 84 85 80 82 87 91 94 96 92 88 91 87 79 79 78 76 74
15 16 17 17 17 16 15 15 14 12 12 12 11 10 10 8 8 8 7 6 5 5 5 5 4 4 5 4 4 4 8 15 16 17 17 16 15 13 13 12 12 12 13 15 20 29 33 39 48 50 57 60 58 57 58 57 49 46 45 46 47 47 58 66 63 64 69 74 78 80 83 84 79 79 80 77 81 87 87 86 80 77 75 75 78 79 78 74
14 14 16 17 17 16 15 15 14 13 12 12 11 11 10 9 8 8 7 6 5 5 5 4 4 4 4 5 4 3 10 18 17 15 16 14 13 13 14 13 13 13 14 15 19 29 32 39 47 50 58 57 58 57 52 50 43 40 41 42 44 42 53 63 62 63 64 70 77 79 80 78 76 80 78 72 74 76 78 82 79 76 74 74 78 79 79 78
13 13 13 15 16 17 15 15 14 13 12 11 11 11 10 10 8 8 7 7 5 5 5 5 4 4 4 4 5 4 7 13 14 15 14 12 12 12 14 14 14 14 15 16 19 29 33 38 44 48 56 49 48 50 41 40 40 40 42 43 45 44 53 60 59 61 58 65 75 74 75 75 75 78 78 75 74 72 73 77 77 78 81 82 83 81 79 79
12 12 12 12 14 16 16 16 14 13 13 12 12 11 11 10 9 8 8 7 6 6 5 5 5 4 5 4 4 6 6 8 11 14 13 12 13 11 14 14 14 15 15 17 21 29 33 33 33 36 42 32 33 39 30 31 35 37 41 43 48 52 57 60 61 63 58 65 72 71 75 75 72 73 76 79 77 72 69 73 76 75 75 80 81 79 78 76
12 12 12 12 12 13 14 15 15 14 13 12 12 12 12 10 9 8 7 7 6 5 5 5 5 4 5 4 4 5 4 7 9 12 13 13 11 10 12 12 13 14 15 19 23 32 32 25 23 23 24 19 23 30 25 30 35 35 41 45 52 57 61 63 66 68 65 68 69 72 78 72 66 65 64 72 79 72 66 69 71 68 68 75 77 75 76 75
12 12 12 12 12 12 12 13 14 14 14 13 13 13 13 11 10 9 7 7 6 5 6 5 6 4 5 5 5 5 4 6 8 11 13 12 11 10 10 11 11 13 15 18 22 28 27 22 23 19 16 15 18 24 25 28 33 37 43 50 55 59 62 64 67 68 67 69 65 71 81 71 64 64 57 62 74 69 62 64 64 63 66 72 75 74 74 76
12 11 12 12 12 12 12 12 13 14 14 13 13 13 13 12 10 8 7 7 6 6 6 6 6 5 6 5 5 6 5 6 9 13 15 12 13 13 12 11 11 12 14 17 19 21 21 22 23 19 17 16 16 23 26 27 34 42 46 53 56 57 61 61 65 66 64 68 63 64 77 69 64 71 61 55 65 67 63 63 62 63 66 68 72 75 75 75
12 12 12 12 12 13 13 13 13 14 14 13 13 13 13 12 10 8 7 7 6 6 6 6 6 6 6 5 5 5 3 7 12 15 16 14 13 13 13 11 11 12 11 15 19 19 20 21 20 20 19 17 18 23 27 30 36 42 45 53 56 55 60 59 61 63 61 65 60 56 66 70 72 73 60 51 58 69 70 70 68 66 67 70 75 80 77 74
12 12 12 12 12 12 13 14 14 14 14 13 13 13 13 12 10 8 7 7 6 6 6 7 7 7 7 6 5 5 4 6 13 18 17 15 14 14 13 11 10 11 11 13 17 17 18 16 15 19 18 16 21 24 27 30 34 38 41 51 58 59 61 57 55 62 60 60 58 50 54 70 80 68 54 52 55 68 77 74 73 72 71 74 78 81 77 71
13 12 12 12 12 13 13 14 15 14 14 14 13 13 12 11 9 8 7 7 6 6 7 7 8 7 8 7 4 5 5 4 11 19 19 16 15 14 13 12 10 10 11 12 14 14 13 10 11 15 15 16 22 27 30 31 34 38 38 47 59 66 69 56 51 62 59 57 60 53 52 66 73 61 52 52 54 66 77 72 71 74 73 76 78 77 74 68
14 13 12 12 12 13 14 14 15 14 14 13 13 13 11 9 8 7 7 7 7 7 7 8 8 8 9 7 4 5 5 4 7 14 17 17 15 14 12 11 10 9 9 9 10 11 9 7 11 16 16 19 26 32 36 39 41 42 44 52 55 62 70 54 48 61 59 59 63 56 60 69 64 57 52 51 55 66 75 73 70 71 72 75 76 74 73 67
15 14 13 13 13 14 14 15 15 14 13 13 12 10 8 8 9 12 15 13 10 8 8 8 7 8 10 8 5 6 6 5 5 7 10 14 14 14 12 11 9 8 8 7 7 8 7 8 13 16 15 20 29 36 42 44 45 45 48 55 55 57 65 57 50 54 54 61 68 60 61 67 59 55 56 54 58 69 79 78 72 70 71 71 72 73 74 68
15 15 14 14 14 15 14 14 14 13 13 11 9 9 10 13 17 21 23 19 14 13 13 12 10 9 9 7 7 8 7 7 6 6 6 9 12 11 11 11 9 8 7 6 7 7 9 12 15 16 16 20 25 33 43 43 42 46 45 48 53 54 59 63 57 53 54 62 68 67 66 65 60 61 66 60 58 72 82 81 77 74 72 71 70 74 75 70
15 15 15 16 16 16 14 14 14 13 11 9 8 14 20 21 22 23 22 20 17 19 20 18 15 12 8 7 8 8 9 8 7 7 6 7 9 8 10 11 9 8 7 6 8 10 12 14 16 19 21 20 21 29 40 37 35 43 45 45 49 49 53 59 56 52 58 63 64 69 72 66 60 65 73 67 61 71 80 80 81 80 77 73 71 75 78 75
15 16 16 17 18 16 14 14 14 12 10 12 14 19 23 20 20 21 20 20 21 20 20 18 15 11 8 6 7 8 8 7 7 6 6 6 7 7 7 9 10 9 7 6 7 10 13 15 17 21 22 21 20 23 27 27 28 35 41 43 42 44 49 49 49 48 53 63 64 66 69 62 58 67 78 77 68 69 76 79 81 81 81 77 72 75 80 78
16 16 16 18 18 16 14 14 15 11 12 19 19 19 23 22 23 24 20 18 17 16 16 16 15 12 10 9 7 8 8 7 7 6 7 7 6 7 7 9 11 9 7 7 7 9 13 16 19 20 21 21 20 20 20 20 23 26 30 35 36 38 41 40 45 47 48 59 62 60 62 58 57 66 76 80 77 75 78 79 78 79 80 78 73 75 78 78
16 15 17 19 18 16 13 14 15 11 16 25 21 20 28 30 30 31 26 18 14 15 14 13 15 14 12 12 11 10 10 10 8 6 7 7 7 8 8 9 9 8 8 8 7 9 10 14 18 19 20 21 20 20 20 18 19 19 21 26 27 29 33 37 44 47 46 52 60 63 61 58 59 66 74 80 81 80 79 77 75 75 77 77 74 74 76 79
16 16 17 18 19 16 12 14 14 11 19 27 23 24 30 31 30 31 31 27 19 15 14 13 14 15 11 11 12 11 14 14 10 7 7 7 7 8 8 8 8 8 10 9 8 10 11 13 14 16 20 20 20 21 19 19 19 18 20 21 20 25 32 36 45 50 44 45 60 65 59 61 66 66 72 78 78 75 72 73 72 71 75 75 73 74 76 79
17 16 17 19 19 16 12 14 14 11 20 28 25 26 28 26 25 27 29 30 24 15 13 14 13 13 10 9 10 11 14 16 13 9 7 7 7 7 7 7 8 8 9 10 9 11 14 14 13 16 19 18 18 19 18 18 17 16 19 19 18 26 31 35 47 54 47 48 62 65 62 72 72 63 67 71 71 71 68 70 69 66 70 72 72 74 76 79
19 16 17 19 19 17 13 12 12 11 20 28 27 26 27 23 21 25 25 26 27 21 15 15 15 13 10 8 9 11 12 13 13 10 6 6 6 7 7 7 9 8 9 13 12 11 12 13 15 15 16 17 16 16 16 15 17 17 17 16 15 20 31 41 49 50 48 52 58 61 68 79 74 62 64 64 63 67 65 64 65 63 65 70 75 76 77 80
19 17 18 18 19 18 12 13 15 13 18 27 27 26 27 22 17 21 25 27 31 27 17 14 17 14 9 9 9 11 12 11 11 8 6 7 6 7 7 7 8 8 11 14 15 14 12 11 12 12 14 16 14 16 16 14 17 18 16 16 12 18 38 49 47 46 52 55 52 52 58 73 83 71 61 62 64 65 62 60 61 61 64 70 76 78 80 84
20 19 18 18 20 17 15 20 20 15 17 23 26 28 27 24 18 17 28 38 35 26 16 12 15 13 9 11 11 10 11 10 8 7 7 7 6 7 8 8 8 10 13 14 15 17 15 12 12 13 14 14 14 15 15 14 16 18 16 16 18 29 46 49 44 48 58 58 48 44 48 67 86 73 55 59 65 66 66 65 63 60 65 70 74 80 84 86
21 20 17 19 20 17 18 19 15 12 14 18 23 27 27 24 17 13 28 43 34 19 14 12 12 11 10 12 11 10 11 9 7 7 7 7 6 6 7 9 8 8 11 12 13 15 14 13 12 13 13 13 15 14 15 16 15 17 17 21 33 43 46 44 43 48 55 54 47 46 54 67 77 69 58 58 63 69 72 72 70 64 65 71 75 81 85 86
24 21 18 19 20 20 19 14 11 11 13 16 19 23 26 21 15 18 30 36 24 12 11 11 10 8 10 12 11 9 9 8 7 7 6 6 7 6 7 10 9 8 10 10 12 14 14 12 11 12 12 13 15 14 16 16 13 16 16 19 28 36 43 44 42 47 50 47 48 53 52 56 72 77 70 65 65 68 70 72 75 70 67 74 79 82 85 88
25 23 20 18 19 21 19 15 13 11 11 15 16 19 20 14 15 25 33 29 18 11 10 9 10 9 9 12 12 9 8 7 7 7 6 6 6 6 6 8 8 9 9 9 11 11 11 11 11 12 13 15 16 15 16 14 12 15 15 17 25 36 46 45 42 47 46 43 50 55 47 46 68 81 75 73 70 62 62 70 74 71 71 77 82 85 85 90
26 25 21 18 19 19 19 17 14 13 15 13 13 14 10 15 30 33 27 22 15 11 9 8 9 8 9 12 12 10 9 7 7 6 6 6 6 6 6 6 7 10 12 14 12 10 9 9 12 13 12 14 14 13 14 14 12 12 13 18 24 34 41 46 56 52 44 49 49 49 48 42 55 74 72 67 66 62 65 74 75 72 76 80 84 86 86 90
27 25 22 19 18 18 19 18 14 16 18 15 14 11 8 24 48 43 23 16 16 13 11 11 11 8 9 14 13 10 10 8 7 6 6 8 7 6 7 7 8 12 19 19 12 12 12 8 12 12 9 11 10 11 12 13 14 13 17 20 19 32 40 44 57 50 42 52 47 44 49 41 46 67 73 64 59 62 67 71 74 76 79 83 86 87 87 91
26 25 23 20 17 18 19 18 15 13 14 17 14 13 20 27 33 37 28 19 17 14 14 14 13 11 9 11 11 10 10 9 8 7 8 10 9 9 9 10 12 12 18 21 13 14 14 9 12 10 8 10 9 12 12 13 16 14 21 26 21 32 37 35 49 52 47 47 41 42 46 45 48 57 75 84 75 71 70 63 64 71 77 85 89 89 91 95
25 24 22 19 17 16 18 18 15 10 10 15 13 20 38 35 24 32 32 21 17 14 16 15 13 15 12 8 9 10 9 10 9 8 9 10 10 10 9 11 13 8 13 21 15 13 14 13 13 9 10 11 8 12 12 13 18 13 16 24 23 29 29 30 46 47 38 37 39 43 46 54 53 52 82 102 89 85 84 70 61 64 75 86 91 92 94 99
23 23 19 17 16 15 18 18 13 11 10 13 18 26 32 30 32 39 34 27 24 18 16 15 13 15 11 9 10 10 9 9 9 9 9 10 10 11 11 10 12 11 13 18 16 15 16 17 16 10 10 11 8 11 12 12 16 15 18 19 21 30 26 26 39 33 27 39 45 41 44 57 53 57 89 100 87 90 89 77 68 66 76 87 94 97 97 101
21 21 17 15 14 15 18 16 12 12 9 12 27 34 31 32 37 37 32 29 25 18 15 14 15 15 11 10 11 9 8 8 9 10 9 10 11 14 14 10 11 15 14 15 18 18 15 16 17 12 10 11 10 11 12 13 13 16 20 16 15 24 23 24 33 33 33 45 54 53 58 72 68 71 95 98 92 97 89 81 80 79 87 92 96 101 99 100
20 19 17 15 15 17 17 15 12 10 9 16 26 31 36 37 30 27 29 24 17 15 16 15 15 15 12 12 12 9 7 7 9 9 9 11 11 13 14 11 11 12 10 13 18 18 15 16 17 13 10 11 11 11 11 11 14 16 16 15 15 17 21 26 28 36 36 30 47 68 81 92 77 68 93 101 96 99 95 92 94 94 98 97 98 101 100 100
19 18 17 15 15 18 16 14 12 9 10 16 22 31 40 32 21 27 29 18 13 14 17 19 16 14 13 14 15 12 9 8 8 9 11 12 10 11 13 11 10 10 9 9 14 16 15 15 16 13 9 9 9 10 10 9 12 15 12 14 17 14 20 25 24 34 35 26 49 79 92 98 75 62 90 104 96 97 97 97 99 100 100 99 101 101 99 101
21 18 17 19 19 17 16 15 13 11 13 21 38 53 48 28 18 24 21 13 15 16 17 21 17 12 13 14 16 13 9 8 9 11 13 11 10 10 10 9 9 9 9 7 9 14 12 12 17 15 10 10 9 8 10 10 10 12 11 12 15 16 21 23 20 25 26 35 67 88 92 96 83 79 96 100 97 98 96 97 98 100 101 99 100 101 99 101
24 19 20 24 19 13 18 21 17 14 13 26 49 52 36 27 24 19 15 15 16 16 18 20 15 11 13 15 15 13 10 10 11 11 12 10 10 10 8 8 8 8 9 7 9 14 13 12 17 17 10 9 11 10 12 13 10 10 12 12 14 20 22 20 21 20 20 40 69 77 80 90 89 93 96 90 94 98 96 98 97 96 101 100 99 101 100 100
26 24 27 25 19 18 23 22 17 16 16 26 44 41 25 24 22 13 12 14 13 15 18 18 13 11 14 14 13 13 12 11 11 10 10 9 9 10 8 7 7 9 10 8 10 14 12 11 16 19 13 9 10 11 12 13 9 10 14 14 14 16 16 17 20 21 31 58 76 67 66 82 89 91 91 84 88 93 92 95 94 94 99 100 100 100 100 100
27 28 32 29 27 27 22 17 20 29 36 36 36 36 29 22 19 16 14 14 14 14 14 15 14 13 13 12 10 12 14 13 11 10 10 9 8 9 8 7 7 9 10 10 10 11 11 14 18 18 12 10 13 13 12 12 10 11 14 15 14 14 16 19 21 31 52 75 83 69 63 80 90 90 92 90 87 89 90 90 92 96 99 100 101 100 100 101
30 30 31 29 31 27 15 20 33 39 45 38 25 25 27 23 23 21 15 13 15 14 13 15 15 14 14 12 11 13 15 14 12 10 9 8 9 8 6 6 6 7 11 12 11 13 15 16 16 16 16 13 10 12 14 13 12 11 11 14 16 14 16 18 20 38 62 74 80 75 68 80 93 96 98 95 88 87 90 90 92 97 100 100 100 100 100 100
33 29 28 29 29 23 16 25 36 37 40 34 21 19 20 19 21 18 14 15 15 14 13 13 13 11 10 10 12 12 12 14 13 12 11 11 10 8 6 6 6 8 10 8 11 17 19 15 13 24 38 30 17 19 20 17 19 17 17 21 17 13 17 21 29 52 70 76 79 73 66 75 90 98 100 94 88 89 91 92 95 97 100 101 100 101 100 100
33 28 32 35 29 22 24 28 29 37 47 38 24 22 20 17 17 17 16 16 14 13 13 12 12 9 8 10 11 10 12 15 14 13 14 13 11 11 11 11 9 9 8 8 14 15 15 21 17 19 35 34 25 27 22 19 25 25 30 35 27 27 32 30 42 62 66 69 73 65 67 81 88 93 99 95 92 95 94 94 97 98 100 100 100 101 100 99
32 27 30 36 33 28 30 32 29 35 45 39 30 29 26 22 18 16 17 16 14 14 13 13 12 9 10 11 9 11 14 14 13 15 17 17 17 15 13 14 12 8 5 7 13 12 13 25 25 19 23 24 27 31 20 18 27 26 35 42 35 38 39 32 44 54 48 59 71 63 65 83 93 96 98 97 96 98 97 97 99 100 100 100 100 100 99 98
33 31 33 36 39 37 33 32 30 31 36 37 36 34 28 24 20 15 16 16 14 14 13 14 13 11 11 10 10 14 15 13 15 17 18 21 23 19 14 14 14 15 17 10 9 18 21 23 32 37 32 29 41 46 31 24 28 28 35 40 39 42 36 30 39 41 43 63 76 73 74 83 96 102 99 98 100 99 99 99 100 100 100 100 100 100 99 100
36 41 45 39 39 42 37 33 31 32 35 34 34 32 28 27 24 18 16 15 13 14 14 13 13 10 10 10 12 14 16 22 24 20 20 25 27 23 16 13 14 21 28 17 7 18 22 15 26 40 35 31 38 38 33 34 34 34 39 39 42 47 40 32 34 37 47 54 56 74 87 80 86 100 100 99 100 98 99 100 100 101 100 100 101 100 99 101
36 41 44 42 49 50 40 37 34 31 31 31 34 35 29 28 28 22 18 15 12 12 12 12 13 10 10 11 10 12 21 28 28 25 27 27 27 25 18 15 16 15 18 16 12 20 23 14 19 34 41 44 40 33 37 46 46 51 61 58 54 57 49 42 46 54 58 49 43 68 88 82 86 100 99 94 96 97 100 100 99 100 101 100 101 100 100 101
39 41 41 49 64 58 42 44 44 39 40 41 44 42 30 28 30 23 18 16 15 15 11 12 14 12 12 14 12 16 27 29 24 26 31 26 24 25 20 18 19 13 14 18 16 20 25 22 25 39 49 49 48 48 48 50 57 67 74 73 70 70 64 61 68 77 79 74 72 81 90 92 95 98 95 93 95 98 100 100 100 101 100 100 100 100 100 101
49 54 54 61 71 64 56 60 60 62 63 54 50 45 31 27 29 22 17 15 17 18 13 11 16 13 12 17 15 16 27 32 25 23 28 26 24 25 23 20 18 16 20 20 15 17 21 23 36 58 63 50 47 55 55 54 64 71 70 69 69 69 69 73 80 81 83 92 95 88 87 93 96 97 99 98 97 100 101 100 100 100 100 100 100 100 100 100
52 58 66 76 80 74 71 69 63 63 59 48 50 48 31 23 25 23 22 17 14 17 15 13 16 17 19 25 24 21 25 31 28 22 23 23 19 18 20 20 17 18 23 22 17 20 23 25 39 59 63 51 45 51 54 52 53 57 60 59 60 64 67 72 77 76 77 89 90 77 74 87 97 100 100 99 100 101 100 99 100 100 100 101 100 100 101 100
51 55 68 84 88 80 74 69 64 60 49 43 49 46 31 25 28 30 31 25 16 14 17 17 17 24 33 33 30 25 20 20 20 18 18 18 17 16 15 15 16 18 23 24 19 23 29 28 36 53 57 48 45 51 55 52 45 48 54 50 52 63 68 67 73 79 82 83 79 72 76 90 100 100 99 100 100 99 99 100 100 100 100 100 100 100 101 99
Wind_Speed
9 8 8 7 6 6 6 6 6 6 6 6 6 6 6 6 6 6 6 6 5 5 5 5 6 7 7 8 8 7 7 8 6 5 5 4 2 1 2 2 3 3 1 2 3 4 4 6 8 6 4 4 2 2 2 4 3 3 2 3 2 1 0 2 5 4 2 2 3 5 6 6 2 4 8 8 10 14 13 12 13 12 13 15 16 17 17 17
9 9 9 8 8 7 6 6 6 6 6 6 6 6 6 6 6 6 6 6 6 6 5 5 6 7 7 7 8 8 8 8 6 5 3 1 1 1 1 2 3 4 3 2 3 3 3 3 8 8 6 4 1 0 1 3 6 3 2 3 0 2 0 1 6 5 3 5 6 6 6 7 6 6 7 4 6 13 12 10 14 16 15 16 16 16 15 15
9 9 9 9 8 8 7 7 6 6 6 6 6 6 7 6 6 6 6 6 6 6 6 5 5 6 7 7 8 7 8 8 6 2 1 1 1 1 0 1 3 4 5 5 5 4 4 2 5 8 7 3 1 2 1 3 6 3 2 3 2 5 2 3 7 7 5 10 10 7 6 7 6 5 6 6 7 8 8 9 12 15 16 17 16 14 14 14
9 9 9 9 9 9 8 7 7 6 6 6 6 6 7 7 7 7 6 6 6 6 6 6 5 6 7 7 7 6 7 8 3 4 4 2 1 2 1 1 2 3 5 5 4 2 4 3 5 8 6 2 3 3 3 6 6 4 4 2 4 5 4 3 8 9 10 14 12 8 6 5 3 4 9 12 8 2 8 15 15 17 19 18 17 15 14 13
9 10 10 9 9 9 9 8 8 7 6 6 6 7 7 7 8 7 7 6 6 6 6 6 6 6 6 7 6 5 5 4 2 7 4 2 2 2 2 1 1 2 3 2 2 1 3 2 6 7 4 2 2 2 3 9 8 3 0 3 8 9 4 4 10 12 14 14 11 9 5 3 3 6 12 11 4 3 12 17 17 19 18 16 16 15 14 13
9 10 10 10 10 9 9 8 9 8 7 7 6 7 7 7 8 8 8 7 6 6 6 6 6 6 6 6 6 5 2 1 5 7 4 2 3 3 2 2 2 2 2 3 1 1 2 1 6 7 4 1 4 4 3 10 9 2 3 2 8 13 10 10 13 15 16 14 10 8 5 5 6 6 8 3 2 4 12 15 17 18 15 13 13 12 12 11
9 10 10 10 10 10 9 9 9 9 8 8 7 7 7 7 7 8 8 8 7 6 6 6 6 6 6 6 6 5 7 6 3 4 3 2 4 4 3 4 4 4 3 3 2 1 2 5 6 7 5 1 6 6 3 9 9 3 2 3 4 13 15 15 18 17 16 15 11 8 7 6 6 4 3 3 1 6 9 13 17 17 14 12 11 11 11 10
10 10 10 10 10 11 10 10 10 9 9 8 8 8 8 7 7 8 9 8 7 7 7 6 6 6 5 6 5 4 10 11 5 5 6 4 5 4 4 5 5 5 4 3 2 1 4 7 6 6 4 2 6 7 5 9 4 4 2 3 4 10 14 16 18 18 17 14 11 10 8 5 4 1 2 1 3 6 8 13 17 16 14 13 12 11 11 10
10 10 10 10 11 11 11 11 10 10 9 9 8 8 8 8 7 8 8 9 8 7 7 6 6 5 5 5 4 4 10 12 7 7 7 5 5 4 4 6 6 6 4 3 2 4 6 5 3 2 3 4 6 8 10 7 0 5 7 4 7 9 12 15 14 15 15 13 13 10 7 6 3 1 1 2 4 6 9 14 17 15 13 12 11 11 10 9
11 11 10 10 11 11 11 11 11 10 10 9 9 8 8 8 8 8 8 9 8 8 7 6 6 5 5 6 3 2 8 11 9 8 7 6 5 3 4 6 6 6 5 4 2 3 3 1 6 8 2 2 1 5 10 7 6 14 16 10 10 10 10 12 11 11 10 11 15 10 5 6 4 2 2 4 6 8 10 14 15 13 13 12 10 9 9 8
12 11 11 11 10 11 11 11 11 11 10 9 9 9 9 9 8 8 8 9 8 8 7 7 7 6 6 6 5 5 6 9 10 10 9 9 7 4 5 7 7 6 5 5 4 2 2 6 11 11 3 5 5 5 8 10 16 23 22 14 9 8 7 7 7 9 7 5 13 12 6 3 1 3 2 7 9 9 12 13 13 13 12 11 9 8 8 8
12 12 12 11 11 11 11 11 11 11 10 10 10 9 9 9 9 8 8 9 8 7 7 7 7 7 7 8 12 10 7 7 11 13 12 12 10 8 7 9 9 7 6 5 4 3 5 9 11 10 5 4 2 5 7 16 22 23 20 10 4 6 3 4 3 7 5 1 12 14 7 2 3 4 3 7 12 10 12 13 13 13 11 10 9 8 7 7
12 12 12 12 11 11 12 12 12 11 10 10 10 10 10 10 9 8 8 8 8 7 7 8 7 8 7 9 13 12 9 9 12 15 14 14 14 12 11 10 11 8 7 6 6 6 7 10 11 11 6 2 3 6 11 19 20 17 12 6 3 4 2 7 5 7 3 3 14 9 4 4 6 6 4 9 14 11 12 13 13 12 11 10 8 8 7 7
12 12 12 12 12 12 12 12 12 11 10 9 10 11 10 10 9 9 8 8 7 6 7 7 8 8 8 10 11 10 11 11 13 17 15 15 16 14 14 11 10 9 8 8 8 9 9 10 11 8 4 4 9 13 12 10 9 9 7 3 3 2 3 7 7 8 2 6 15 4 3 5 6 6 9 12 14 13 13 13 13 12 11 10 8 8 8 7
12 12 12 12 12 12 13 13 13 11 10 9 10 11 11 10 9 8 7 6 5 6 7 7 8 7 9 12 12 10 11 12 14 17 16 15 15 14 14 12 9 9 9 9 9 9 9 9 7 3 5 12 16 12 6 3 3 4 5 0 2 3 3 3 7 11 4 5 13 3 1 5 6 7 13 15 15 14 14 14 13 12 10 10 9 9 9 8
12 12 12 12 13 13 13 13 13 11 9 10 10 11 10 8 7 6 5 5 4 5 5 6 7 6 6 8 10 11 12 14 14 16 18 17 16 14 13 10 10 10 9 9 9 10 9 6 1 3 7 12 11 6 5 4 4 3 3 2 3 4 2 1 5 13 7 3 7 3 0 3 5 9 16 16 16 15 14 14 14 13 11 11 10 10 10 10
12 12 13 13 13 13 13 13 12 10 9 10 10 8 7 5 5 5 3 3 3 4 5 7 7 7 7 7 7 8 11 13 13 14 17 19 19 16 13 12 11 11 11 10 8 7 5 2 5 4 3 5 4 5 6 3 3 3 1 2 4 4 4 2 3 11 10 5 7 5 2 5 5 7 16 18 18 16 15 16 15 15 14 13 12 11 11 11
12 13 13 13 13 13 13 13 11 9 9 10 8 4 3 4 3 1 4 4 2 3 5 7 5 3 7 9 8 7 8 10 12 14 15 18 20 17 15 15 13 13 14 10 3 3 5 3 5 2 3 3 3 6 5 3 5 5 5 4 4 3 5 6 3 9 13 7 7 7 5 9 7 4 14 18 19 17 17 16 15 16 16 15 14 12 12 12
12 13 13 13 13 13 13 12 10 9 9 9 7 3 2 4 2 3 5 2 5 5 4 6 7 3 5 6 7 8 8 8 9 13 15 16 18 18 17 16 14 12 11 7 1 3 4 2 3 3 1 2 4 6 5 7 8 8 7 5 4 5 5 7 4 9 16 9 7 10 8 9 7 5 11 16 19 19 18 16 14 16 16 16 16 14 13 13
12 13 13 13 13 13 12 11 9 9 8 6 5 3 3 6 2 2 6 10 12 11 11 12 12 13 13 10 8 8 8 8 9 12 14 14 15 16 16 14 11 7 4 3 3 2 3 1 2 5 6 6 7 8 8 7 7 6 4 4 6 6 6 5 4 8 15 10 7 10 7 7 7 6 9 16 17 16 17 15 16 18 18 18 17 16 15 13
12 12 13 13 13 12 11 10 9 8 7 7 6 3 6 7 3 4 11 13 13 13 16 16 16 20 20 16 14 12 10 8 10 13 13 12 12 10 10 8 3 3 4 3 3 3 3 2 5 7 8 8 9 8 6 5 5 4 4 5 6 5 6 5 5 10 13 8 5 6 6 8 7 4 7 14 15 15 20 19 20 21 20 20 19 18 17 14
12 12 13 13 12 12 11 9 9 6 6 7 8 9 10 9 5 6 8 10 17 17 15 16 17 22 22 19 19 16 11 7 9 12 12 12 12 10 6 4 4 3 3 1 1 4 3 6 9 8 7 6 6 6 6 5 5 3 3 3 4 4 3 2 1 8 11 6 4 5 7 8 6 3 5 12 14 17 25 25 23 22 21 21 21 20 18 16
13 12 13 13 12 12 10 9 8 4 4 5 8 10 10 9 8 9 6 7 16 18 14 15 17 21 21 18 17 15 10 6 8 9 12 14 14 13 9 6 5 4 1 2 3 1 2 6 5 6 8 7 3 3 5 3 1 2 2 2 5 3 3 1 2 5 6 3 3 6 5 4 5 4 4 12 16 15 22 26 23 22 22 22 20 20 19 17
13 12 12 12 12 11 10 9 6 2 3 4 5 6 8 9 9 11 8 6 9 11 10 10 12 16 17 13 11 14 13 9 8 7 12 17 15 12 9 7 5 3 2 4 7 5 7 6 0 3 4 7 3 1 3 3 3 2 4 4 6 4 3 3 3 5 3 4 3 7 3 5 4 5 6 8 13 12 15 20 20 22 24 20 16 17 19 18
13 13 12 12 11 10 10 7 4 1 2 2 1 1 5 8 10 11 8 3 5 6 5 4 6 8 10 10 8 10 10 10 12 9 9 16 16 10 5 5 5 3 5 4 6 4 9 7 1 2 2 4 3 3 1 2 2 5 4 8 9 4 5 9 9 8 4 2 3 6 2 5 4 5 8 5 6 9 11 14 17 21 23 21 17 15 17 18
14 13 12 12 11 10 8 5 3 2 3 3 3 2 4 7 11 11 6 3 3 5 2 1 2 2 7 11 11 8 4 6 13 12 8 12 15 9 5 3 2 3 5 4 3 3 5 3 3 2 2 1 2 3 3 5 2 3 5 6 4 3 10 13 12 7 4 3 6 5 4 4 4 6 10 6 4 7 8 10 15 20 22 23 20 16 17 19
15 14 13 12 12 10 8 5 5 5 4 5 5 5 5 7 10 9 4 4 3 4 0 2 1 3 4 9 15 12 2 4 8 11 11 11 11 8 5 3 1 3 4 4 1 3 3 3 2 3 1 1 2 3 4 6 7 2 6 5 5 8 11 14 13 7 3 3 2 3 4 1 4 7 7 5 4 6 6 7 10 18 23 23 21 18 17 20
15 15 14 12 12 11 9 7 6 5 5 6 6 6 6 7 9 5 2 3 2 2 1 2 1 2 2 7 18 12 1 2 5 7 12 11 10 7 4 6 6 4 2 5 4 5 1 1 3 3 2 2 4 4 6 6 4 6 5 4 3 6 8 10 9 3 1 4 1 4 2 2 4 6 2 3 4 8 9 8 9 16 23 21 19 19 18 20
15 16 15 13 12 11 10 8 6 5 5 6 6 7 7 7 6 1 4 1 2 1 1 1 1 2 2 6 15 12 2 2 2 4 10 11 12 8 3 7 7 3 1 4 5 7 4 4 5 4 3 4 6 6 7 7 3 5 2 5 4 5 5 4 4 3 3 2 3 7 6 3 4 6 1 3 4 9 9 6 9 17 21 19 19 20 20 21
15 16 16 14 12 11 10 8 6 5 4 5 6 7 6 4 1 3 1 1 1 2 2 1 1 2 4 5 5 9 4 2 3 3 8 8 12 9 2 3 4 5 2 3 1 7 6 4 2 4 5 7 6 6 7 8 6 2 5 6 7 7 5 4 3 4 4 2 4 6 8 4 2 5 3 4 3 4 3 4 7 13 17 19 21 23 23 23
15 16 16 16 13 11 10 8 5 4 3 3 4 3 2 1 3 5 2 2 1 2 3 1 1 2 5 4 2 4 2 3 2 3 4 2 4 4 3 2 1 4 4 5 3 6 7 5 2 3 9 7 2 3 3 2 2 2 4 4 4 4 4 5 4 3 2 5 5 3 6 5 2 6 4 4 2 2 5 6 8 12 17 22 24 25 25 25
15 15 16 16 15 12 10 8 6 5 3 2 1 2 3 1 1 2 3 4 1 1 2 1 1 2 1 2 2 3 2 2 2 2 3 2 3 3 3 4 4 2 3 3 2 5 5 5 4 2 7 7 5 1 2 4 4 4 3 4 3 2 2 2 2 1 2 6 4 2 6 4 5 7 3 3 5 2 3 7 12 17 21 24 26 26 26 25
15 16 15 16 15 12 8 8 7 5 3 1 2 3 5 4 1 4 3 3 1 2 2 2 3 2 2 2 2 3 2 2 3 1 2 2 2 3 4 4 6 4 2 3 1 2 3 6 5 3 5 7 8 4 2 3 0 5 4 3 3 2 2 1 3 1 3 5 4 1 5 4 5 4 2 3 6 9 8 6 9 16 21 24 25 26 25 23
14 16 16 15 14 11 8 7 7 6 3 2 3 4 5 2 4 3 2 3 2 3 3 3 5 3 3 3 3 3 2 2 3 3 1 2 2 2 4 3 4 4 2 2 1 3 1 5 4 4 3 6 9 7 7 5 2 3 4 5 4 4 4 3 4 3 3 3 2 2 3 4 3 3 3 3 6 10 10 5 5 11 18 22 23 23 23 23
14 15 16 15 11 8 8 8 8 5 3 4 4 5 3 3 3 1 1 3 2 4 7 5 2 3 3 1 3 3 4 2 1 3 2 2 3 4 3 4 5 4 4 3 2 3 2 5 8 6 2 6 7 5 7 6 1 3 3 5 2 4 5 2 3 5 4 2 1 1 2 3 3 3 1 2 5 6 1 8 12 14 19 22 22 21 22 24
15 14 15 13 9 6 6 7 7 5 6 6 5 3 4 4 2 2 1 2 2 3 7 7 3 4 3 2 3 1 2 1 1 2 1 3 4 5 4 4 6 7 6 5 3 2 2 5 7 4 2 6 8 7 6 5 3 1 2 3 4 4 7 3 1 0 3 2 1 1 3 4 3 2 1 4 5 5 6 9 13 16 19 21 21 20 20 22
14 13 12 10 7 6 7 7 7 7 7 6 4 2 4 3 3 4 1 2 3 2 3 4 2 2 2 2 3 3 1 0 1 1 1 2 3 5 4 4 6 10 11 8 4 3 3 4 7 2 4 7 7 7 2 3 5 3 2 5 2 2 4 3 1 3 3 2 3 1 2 4 2 2 2 3 3 3 4 7 11 14 17 18 18 18 18 19
14 12 8 6 6 7 9 8 8 9 7 5 2 3 3 2 3 4 3 3 3 1 3 1 2 1 2 0 3 2 0 1 1 1 2 2 3 4 4 3 6 12 15 12 4 2 3 2 8 4 4 5 1 4 2 4 1 3 3 3 3 1 0 1 2 0 0 2 3 3 4 3 3 3 2 1 4 5 5 7 8 11 14 16 16 17 18 18
15 10 6 5 4 9 11 8 9 9 6 4 1 2 2 3 5 7 8 5 1 0 0 3 2 2 1 2 2 1 1 2 3 2 2 1 3 4 4 4 4 8 14 14 6 2 3 1 5 5 3 2 3 2 2 4 3 3 2 2 2 3 3 2 2 2 3 2 2 3 4 3 5 4 4 6 8 7 7 7 8 10 13 15 17 19 19 18
12 7 5 3 5 11 11 10 10 8 4 2 4 3 2 3 5 9 9 6 2 1 2 3 1 2 2 2 2 2 1 2 4 3 2 2 3 4 5 6 2 1 8 11 6 2 2 2 3 5 5 2 1 2 6 6 2 2 2 1 1 1 2 2 1 2 2 3 2 1 2 5 5 3 5 7 7 7 8 7 8 11 14 15 17 19 18 17
8 4 4 2 10 12 11 11 6 4 2 2 3 2 2 2 3 7 10 9 7 5 4 4 2 3 2 1 2 2 1 2 3 3 2 3 3 4 6 8 6 4 5 4 3 3 3 3 3 4 4 2 6 6 6 7 5 5 4 4 4 3 3 2 1 2 2 4 4 4 2 6 5 2 3 4 3 6 8 9 9 12 14 14 15 17 16 15
4 1 3 2 11 12 10 7 1 2 4 2 3 3 3 2 2 5 7 5 6 6 4 3 3 3 3 2 3 2 1 1 2 2 3 4 5 5 6 6 8 9 7 4 4 4 4 4 2 4 4 5 10 7 4 5 4 5 3 3 4 4 5 5 5 3 2 3 1 3 1 6 5 1 3 3 6 10 12 12 10 12 13 13 13 14 14 13
3 1 3 3 12 11 6 2 2 1 2 2 3 4 4 3 2 3 3 2 4 4 1 2 3 3 3 4 3 2 2 1 2 3 3 3 4 8 11 9 6 8 6 3 3 3 3 3 2 4 4 5 8 5 1 2 3 4 1 1 4 3 3 5 5 4 4 3 2 3 1 5 4 2 3 3 10 14 13 11 10 11 11 10 11 11 11 12
5 3 1 6 14 9 2 2 2 1 3 3 3 4 5 5 5 4 3 3 3 2 0 2 4 3 2 2 2 2 2 1 1 2 1 1 3 7 11 10 5 7 6 3 4 7 4 2 3 0 4 5 6 6 5 3 2 2 2 1 3 4 6 5 2 3 3 4 4 4 3 6 3 3 4 3 7 9 11 11 10 10 10 10 10 9 8 10
4 2 0 6 13 8 1 2 3 1 2 3 3 5 5 4 7 8 7 6 6 4 2 3 4 2 2 1 0 2 1 2 1 2 1 1 3 6 8 6 1 8 8 5 8 11 6 2 4 5 2 1 1 1 2 2 1 1 0 1 2 4 7 6 3 3 2 4 4 4 5 5 3 2 4 5 6 8 11 13 11 11 12 11 10 11 11 10
1 2 1 3 8 8 5 3 1 2 1 2 2 3 2 1 5 7 6 7 8 7 5 5 4 2 2 1 1 3 2 0 1 1 2 2 3 5 6 6 6 1 7 10 16 13 3 1 3 7 6 6 6 6 6 2 2 1 2 3 3 1 2 4 5 3 4 5 3 5 5 3 2 4 6 6 8 8 9 12 12 12 13 12 12 14 13 13
1 1 1 3 3 5 6 6 5 3 2 1 1 2 2 2 4 5 2 4 5 6 5 4 2 2 2 1 1 2 2 2 2 0 2 3 4 5 5 5 9 8 2 13 18 10 4 1 2 5 3 5 5 6 5 2 3 1 2 3 4 3 2 4 5 3 5 8 2 6 6 5 4 7 8 6 7 8 8 11 13 13 14 14 14 15 15 15
2 1 2 3 2 3 3 6 7 7 4 2 1 2 2 3 3 2 3 3 3 3 3 2 3 5 5 4 3 1 2 4 4 2 1 2 4 5 6 4 5 9 6 6 7 6 5 2 2 3 3 5 3 3 3 3 4 3 4 4 4 4 4 5 4 2 6 6 4 6 7 4 1 4 8 7 8 9 10 12 13 14 15 16 16 16 17 16
4 2 1 3 2 4 4 4 4 6 6 3 2 2 2 4 4 4 4 2 4 4 4 2 5 6 5 5 5 1 1 2 1 3 2 1 3 3 5 3 5 9 8 3 1 3 5 2 1 3 4 8 8 7 4 3 5 4 5 4 4 5 6 6 5 3 6 5 2 2 7 3 2 3 7 9 11 12 12 13 15 15 16 17 18 17 17 16
4 2 2 2 2 3 4 4 2 3 3 3 3 4 3 4 5 5 4 4 2 3 2 4 6 6 5 5 5 3 5 7 3 3 3 1 2 1 0 1 3 7 7 3 2 2 4 1 2 4 5 6 9 9 7 4 6 5 6 6 6 7 7 6 3 3 5 4 3 5 7 3 3 4 9 13 16 15 14 15 15 16 17 19 20 18 17 17
5 3 1 1 1 1 2 2 2 4 1 2 4 3 3 5 6 3 3 8 10 6 3 4 6 4 2 4 5 5 8 8 8 7 7 4 1 2 1 2 3 2 5 3 2 3 4 3 1 4 5 4 6 7 7 6 8 7 6 7 7 6 4 2 2 2 2 3 4 6 3 1 1 7 11 14 17 15 15 16 16 17 18 20 21 20 19 19
8 5 4 2 0 1 1 0 2 3 1 3 4 4 4 5 5 2 1 5 10 9 9 8 4 1 3 3 4 6 8 8 9 11 11 9 7 6 7 7 5 3 0 1 2 3 3 5 2 3 4 2 4 5 6 6 7 4 4 3 3 3 3 1 2 3 1 4 5 3 2 3 6 9 9 10 12 13 15 16 17 19 20 19 20 21 20 21
Wind_Direction
336 333 332 333 337 344 351 353 357 358 357 355 353 349 346 342 337 335 329 325 323 322 318 313 311 306 303 299 298 291 294 306 303 307 318 333 5 14 71 56 39 54 87 155 212 238 219 191 188 189 187 182 210 294 276 217 174 70 57 75 59 59 74 188 175 169 142 114 133 151 138 126 127 117 116 103 99 108 110 105 108 114 120 131 134 139 148 155
334 331 329 328 328 331 337 341 344 348 350 348 349 345 340 340 336 332 328 323 318 316 312 306 308 303 301 299 296 290 289 299 298 290 298 322 315 340 70 71 37 28 32 8 331 321 306 219 197 194 189 184 187 207 31 189 176 149 77 78 189 203 120 151 156 146 115 130 140 147 145 142 142 142 144 122 100 114 110 105 116 120 123 133 135 135 143 149
331 331 330 328 324 323 324 326 330 334 338 341 342 340 337 335 333 333 328 324 318 312 306 301 302 300 300 298 293 293 294 300 300 272 202 214 293 336 145 73 34 17 13 2 359 358 345 336 198 194 183 192 233 189 158 167 181 191 108 70 261 199 94 49 138 137 128 141 138 133 147 145 141 149 155 139 117 118 131 141 133 133 142 147 147 145 148 151
331 334 334 330 324 320 318 317 316 318 326 330 332 334 331 329 330 331 330 327 320 310 302 296 296 297 298 298 294 294 306 311 293 157 156 204 286 314 288 32 36 7 2 0 12 6 332 0 178 183 172 207 265 226 205 191 183 165 150 176 213 163 88 87 140 135 135 143 141 133 142 143 148 175 154 137 117 119 177 168 160 154 153 151 153 157 159 161
334 336 336 332 326 319 315 313 309 307 313 316 322 324 323 325 324 326 329 328 323 313 300 292 290 293 293 297 294 289 319 347 155 154 155 199 255 290 293 323 321 340 352 340 357 46 319 338 168 174 167 220 231 221 216 194 179 133 135 212 171 139 110 161 149 141 141 141 137 129 132 140 136 146 148 143 127 202 185 174 167 161 156 153 154 158 163 167
333 334 334 332 329 323 318 314 307 303 304 305 311 312 314 317 317 321 324 327 327 316 301 290 285 285 286 292 293 283 262 153 148 149 150 208 256 275 271 279 279 296 313 304 280 135 317 233 176 178 173 227 198 204 225 190 183 96 16 258 162 137 135 164 153 148 149 141 136 136 134 129 120 135 158 186 330 173 173 170 165 159 157 156 154 159 166 171
333 331 331 330 329 327 324 317 310 305 301 299 301 302 303 305 310 314 316 324 326 319 307 293 284 278 280 286 287 276 241 231 184 169 209 248 247 264 265 263 268 265 280 300 248 175 232 202 203 195 173 239 202 215 223 170 172 121 53 275 157 132 140 159 156 153 154 145 141 141 130 122 121 139 206 264 60 144 164 169 165 159 159 162 164 168 171 176
333 331 330 329 328 329 326 321 315 309 303 298 297 296 293 295 300 305 309 318 320 320 312 300 291 271 271 283 278 281 250 236 220 232 258 256 233 253 269 264 272 270 275 305 300 131 188 204 214 193 190 223 172 190 169 133 137 107 130 227 124 120 140 155 156 156 154 145 144 138 123 126 134 152 255 257 136 147 162 170 168 165 166 170 177 180 182 188
336 333 331 330 328 328 326 324 319 312 307 298 296 292 289 289 290 296 301 309 316 316 311 305 298 274 265 273 269 288 251 231 228 247 254 250 236 241 259 271 281 281 291 306 268 169 187 211 239 241 236 206 144 170 162 131 198 121 119 142 118 114 138 150 155 156 153 147 149 133 106 132 136 9 265 206 160 159 166 170 173 173 174 177 183 189 193 202
338 335 333 331 328 328 325 324 320 314 308 299 296 290 288 286 283 289 292 301 310 308 309 305 297 279 259 262 251 258 242 230 229 232 231 233 239 246 264 279 284 289 308 322 294 194 186 286 348 358 332 246 43 163 155 137 138 120 108 100 106 114 133 150 154 158 153 152 160 141 103 153 132 25 246 208 179 167 170 174 179 181 180 182 184 191 200 211
339 337 335 332 329 328 325 324 321 316 309 300 295 289 287 286 282 283 284 295 302 302 304 299 295 279 256 252 225 215 233 231 221 212 213 221 227 239 263 277 285 297 306 321 328 323 350 351 359 11 6 317 348 112 111 119 124 116 111 91 81 102 117 147 154 166 156 154 167 139 99 157 160 336 265 202 188 178 180 182 186 187 186 186 188 194 203 209
338 337 335 333 330 327 325 326 324 319 312 303 296 290 286 284 282 281 280 288 295 297 295 293 294 277 264 255 238 234 244 238 219 208 210 216 218 221 237 262 274 287 291 296 310 328 347 344 350 359 347 334 49 107 104 125 121 112 114 98 59 72 88 190 176 183 175 187 170 134 77 328 265 275 272 192 190 190 192 194 194 192 193 193 197 206 207 205
337 336 335 333 330 327 326 327 327 323 315 305 297 290 286 282 281 279 278 283 289 291 287 288 287 278 276 261 246 243 247 243 223 212 211 216 218 215 218 241 258 267 275 280 291 306 331 336 334 343 0 45 112 128 128 127 115 104 107 98 107 58 311 220 201 198 214 204 173 134 29 271 264 251 211 187 193 199 205 208 204 201 202 203 206 210 206 195
336 334 332 332 330 328 326 327 329 326 317 308 300 293 287 281 281 280 279 283 285 281 278 281 283 282 274 253 243 240 239 238 227 217 216 222 224 219 214 227 253 264 271 275 288 302 317 330 327 340 31 112 127 122 114 109 99 103 102 70 126 114 269 219 193 186 199 200 180 117 24 227 268 236 184 189 199 204 213 217 212 207 204 205 207 201 196 185
335 332 331 330 329 328 327 329 330 327 321 311 303 297 291 287 285 282 282 284 280 275 276 279 281 284 281 262 247 236 233 233 229 222 223 230 234 230 218 220 245 265 281 281 285 296 310 325 324 355 98 126 126 115 80 51 38 82 110 275 209 191 259 250 203 191 182 192 184 132 44 230 271 216 184 191 202 207 218 227 220 212 202 200 203 193 188 183
335 331 329 329 329 329 328 331 332 330 326 315 307 303 298 295 291 287 285 279 268 268 270 275 278 277 284 273 246 229 229 231 230 227 229 233 236 236 228 229 245 261 285 298 295 292 300 318 337 109 124 130 120 99 67 53 356 9 118 203 209 191 241 278 220 212 199 139 180 190 162 235 270 212 187 188 201 206 217 232 226 219 209 199 201 193 187 185
335 331 329 328 329 330 330 334 335 333 331 320 312 309 304 302 304 294 259 223 233 259 269 266 274 276 261 253 239 223 223 226 228 229 228 228 234 239 241 250 260 265 282 303 306 280 259 195 147 141 104 109 104 102 85 41 301 299 217 231 226 190 183 175 229 216 192 151 188 199 212 238 270 211 185 187 200 203 215 233 233 225 216 205 203 198 194 190
333 331 329 328 330 331 332 337 335 337 340 327 316 317 315 315 320 256 173 165 225 259 272 252 236 282 259 239 229 221 218 220 226 227 224 224 229 236 242 253 267 282 298 315 346 154 179 162 135 128 28 57 110 111 107 205 210 221 221 231 242 199 185 199 212 190 176 172 195 188 229 250 272 218 185 188 195 203 217 229 237 234 224 212 206 202 200 194
332 331 329 329 332 332 334 337 335 341 346 339 329 320 311 323 324 185 181 231 275 261 266 240 203 207 259 252 242 239 238 231 229 226 222 222 224 230 234 245 262 283 311 323 11 107 144 135 92 119 119 144 170 153 166 198 191 202 214 214 216 207 216 213 208 183 169 168 201 194 214 241 244 210 187 187 191 204 220 230 239 240 232 219 209 206 203 195
331 330 328 329 333 332 334 335 335 346 355 2 345 312 333 350 359 235 280 285 273 258 257 251 236 244 263 280 275 261 263 255 241 225 216 221 223 225 229 239 260 280 297 275 276 19 84 117 209 204 204 170 172 188 187 185 178 182 202 238 231 224 241 210 184 186 164 162 215 203 212 241 230 212 185 181 184 200 218 228 236 237 233 223 211 207 204 196
330 329 327 330 333 332 332 330 333 352 12 24 14 36 52 31 26 314 312 299 284 271 265 261 253 255 261 269 269 272 288 275 240 220 209 217 216 213 222 224 230 264 258 240 264 327 25 281 237 216 210 172 171 192 175 159 178 186 191 224 241 232 241 223 174 176 163 165 219 190 204 245 242 234 181 174 177 199 211 218 228 231 230 223 213 207 204 198
328 328 327 328 333 331 328 328 331 351 30 44 52 72 66 41 11 323 313 297 297 296 282 268 256 254 255 254 258 265 281 278 246 226 207 206 203 199 200 165 148 217 274 19 323 326 340 268 249 211 185 142 153 175 149 158 179 181 188 215 264 237 226 298 113 161 163 176 228 178 195 243 271 274 193 188 194 203 208 213 222 227 228 223 214 208 204 200
326 327 327 327 333 331 325 325 330 353 64 72 68 67 50 23 1 334 308 276 295 299 284 264 253 252 250 249 252 249 243 243 252 237 206 200 198 196 183 146 168 207 333 111 172 247 264 258 250 175 150 114 118 166 136 142 141 143 201 278 285 241 172 306 17 143 153 153 176 164 188 276 304 291 232 212 214 212 211 217 225 230 231 228 218 211 208 203
324 325 326 326 331 331 325 322 331 354 108 99 76 63 33 8 353 337 317 271 287 299 286 264 252 254 250 243 243 232 221 228 243 222 201 199 189 189 191 167 165 196 240 183 164 200 239 243 44 83 125 120 121 289 86 59 343 284 228 243 271 266 153 150 124 127 99 30 118 125 67 316 284 263 258 219 213 218 215 217 226 232 233 231 225 217 212 207
323 323 325 325 328 333 327 321 335 343 171 145 130 63 18 358 344 337 329 309 292 293 291 256 243 252 232 207 207 209 207 229 235 209 192 197 186 174 183 167 156 215 236 177 143 215 253 250 221 325 300 111 87 317 143 135 328 318 247 232 255 266 109 119 124 122 94 335 217 132 83 289 281 256 250 225 197 215 216 212 219 227 228 226 224 218 208 206
323 321 324 325 323 331 332 321 332 314 216 210 229 251 329 337 340 335 334 28 328 282 287 197 221 193 183 186 177 157 150 242 234 214 193 197 192 170 155 159 146 218 209 156 140 221 266 283 123 145 264 19 10 295 217 165 118 327 250 215 221 131 121 134 140 135 142 214 220 160 148 260 302 268 242 227 202 220 218 210 213 218 220 220 219 214 202 200
323 319 322 325 324 329 336 322 312 299 250 239 244 253 282 312 333 328 332 34 339 281 177 161 172 134 177 184 163 143 117 236 217 215 207 197 195 181 178 198 171 219 184 126 211 242 261 324 63 114 124 338 302 271 230 159 126 242 238 159 129 130 143 161 159 157 177 148 151 152 125 123 289 270 242 201 209 245 235 217 211 211 215 216 213 211 204 201
323 318 318 323 325 327 330 319 302 294 269 257 255 256 273 306 318 316 68 45 299 286 70 184 136 123 182 179 174 171 81 163 171 214 209 193 194 190 199 211 189 205 177 134 218 260 248 224 232 215 195 229 244 222 193 150 135 254 234 134 151 155 153 168 160 146 114 95 126 223 155 111 265 281 325 118 210 251 237 216 205 207 211 208 203 206 206 205
322 318 315 316 321 321 320 316 305 298 278 266 260 265 283 305 312 20 90 40 262 313 17 171 134 169 159 157 192 214 286 61 83 190 187 184 195 192 200 219 184 140 103 137 200 250 246 211 206 170 160 210 222 209 181 159 194 251 138 74 38 69 86 110 115 69 45 64 222 214 187 168 266 280 17 93 229 248 237 204 198 207 206 199 196 200 203 204
319 317 312 309 314 314 313 314 307 298 283 277 270 273 291 303 0 71 83 264 263 327 351 160 184 180 142 118 207 246 269 310 350 127 157 168 192 193 151 201 152 109 30 14 217 248 270 272 228 150 196 214 207 214 196 180 203 190 89 68 45 44 47 54 56 67 64 315 258 202 189 175 287 274 211 170 209 220 183 159 195 204 198 192 194 198 200 201
316 315 310 306 307 308 309 305 293 287 286 295 287 267 273 334 69 90 178 252 299 330 1 348 292 98 132 133 202 253 260 283 311 125 149 126 163 174 101 121 114 74 12 355 315 295 316 307 283 212 225 220 169 217 213 167 175 118 87 85 66 12 18 37 0 35 101 258 266 205 181 157 226 261 231 219 255 111 137 171 192 195 192 190 192 196 198 199
312 310 307 302 299 300 301 292 276 271 276 302 330 158 134 58 37 146 237 302 343 315 349 307 297 29 127 169 190 209 188 252 271 133 158 119 117 161 167 188 180 59 347 284 279 325 315 269 280 288 234 202 148 188 285 358 44 114 112 80 80 329 8 43 294 308 206 247 273 182 159 159 238 248 243 263 280 283 199 200 200 196 191 187 189 193 194 194
307 305 302 295 292 294 291 281 262 250 258 264 105 112 95 77 224 222 261 320 5 292 302 278 298 309 186 180 220 207 158 229 249 175 151 116 114 222 248 210 165 144 239 216 209 337 304 298 311 320 261 202 165 153 235 291 57 148 161 133 128 134 93 249 249 258 253 251 297 275 177 199 277 269 257 270 278 280 275 255 222 204 192 186 186 188 189 189
305 304 299 288 288 290 279 262 243 235 236 180 123 87 89 118 235 236 276 278 280 307 310 302 306 324 131 163 242 195 150 247 216 148 136 78 77 250 271 255 169 142 151 164 166 174 209 308 263 217 245 186 172 178 181 181 174 183 166 137 144 155 161 232 224 197 228 233 302 309 193 197 246 241 234 263 302 295 276 244 195 186 185 183 180 180 183 184
306 303 296 289 290 286 266 246 231 221 196 168 102 75 127 206 252 241 247 266 299 315 310 317 5 57 64 275 269 177 163 237 183 125 148 163 172 202 211 218 189 144 128 160 230 180 162 263 249 243 234 161 170 193 163 133 147 248 145 115 171 185 163 192 194 174 173 151 144 222 226 220 217 221 208 34 0 350 155 152 142 150 168 174 173 177 181 181
308 303 296 292 291 276 251 232 215 199 186 158 86 75 193 216 225 164 203 270 306 312 324 340 51 72 21 319 318 308 165 191 140 123 190 202 212 211 210 217 191 167 154 164 214 180 150 264 273 302 280 195 182 179 160 152 181 233 131 181 226 173 129 120 258 71 98 147 233 233 271 300 313 299 54 62 40 48 95 124 131 141 156 165 171 177 180 182
313 309 299 292 281 254 225 208 192 187 180 141 100 183 217 227 204 194 240 316 292 299 15 3 351 51 35 347 318 305 312 17 117 142 215 258 248 204 216 243 188 180 186 181 202 206 166 268 283 260 249 253 207 169 183 202 157 120 219 215 197 96 84 101 211 5 42 226 267 299 273 295 318 292 324 45 81 112 114 116 125 139 153 162 171 178 181 184
323 321 310 295 271 227 201 189 180 178 161 114 89 236 222 228 211 218 279 318 308 339 76 160 271 14 68 3 289 291 156 204 232 183 178 257 272 198 188 229 197 196 197 182 189 240 157 267 289 249 219 290 316 141 282 295 168 129 189 168 120 139 322 74 148 163 269 248 285 309 297 268 214 228 280 251 185 181 160 142 142 152 160 165 170 177 183 185
330 331 337 323 253 191 180 177 175 169 139 104 188 242 212 236 253 260 281 297 273 137 128 220 249 353 42 192 238 270 192 194 198 178 157 191 256 217 182 201 216 211 194 173 169 223 138 145 288 277 234 309 19 112 207 274 327 42 71 59 57 154 170 167 155 159 177 200 264 307 322 277 228 216 203 208 206 187 167 167 171 171 174 173 173 180 184 183
332 337 355 1 159 161 162 163 162 154 123 148 203 223 226 244 265 269 274 275 235 205 235 213 207 308 280 241 256 267 234 186 167 171 193 195 235 252 215 197 192 190 182 171 172 189 130 152 249 291 308 306 315 197 190 198 195 88 94 245 282 118 136 156 107 84 131 152 178 243 304 272 247 205 204 218 206 179 168 171 176 181 185 181 180 184 182 178
333 346 7 106 149 149 148 148 148 133 119 186 208 222 248 239 265 278 277 261 242 246 240 212 211 240 242 291 286 257 223 192 169 171 213 201 219 261 231 203 182 133 133 151 195 203 170 158 207 279 316 263 247 242 195 179 166 145 162 195 187 150 128 136 241 298 96 128 162 162 220 268 260 188 242 248 183 166 169 168 173 181 183 181 182 183 178 176
321 5 3 134 156 151 143 138 74 90 135 192 236 236 259 267 255 277 285 257 230 239 243 223 226 220 203 222 244 240 244 226 178 178 217 209 200 217 237 222 180 156 140 154 207 198 155 124 176 252 247 231 255 259 190 174 150 132 163 189 162 146 135 152 202 221 114 99 130 120 156 270 266 262 294 247 174 164 168 171 170 171 173 175 175 175 177 176
294 278 337 166 165 159 141 111 347 356 189 258 269 258 260 258 246 269 290 254 224 231 239 234 227 211 212 221 216 225 241 212 180 197 220 225 217 232 255 269 219 168 148 164 197 171 140 124 162 271 297 292 291 304 138 159 114 105 285 169 139 159 149 154 181 164 130 153 136 86 284 268 276 340 335 209 169 158 160 162 157 158 162 167 170 174 176 167
297 293 339 159 170 173 147 145 170 255 280 298 313 296 278 252 234 233 239 237 220 192 152 251 227 212 231 210 181 217 211 152 249 256 228 194 240 256 273 287 256 182 166 180 177 170 181 167 136 148 338 342 339 351 359 354 69 119 272 270 143 132 111 113 122 83 103 188 148 115 224 258 292 9 32 104 134 132 137 140 141 150 154 158 166 163 148 141
297 269 179 166 182 195 216 150 156 164 286 314 311 294 291 265 241 233 229 242 240 208 201 261 240 233 276 238 195 272 212 121 262 290 343 262 255 273 293 317 254 189 206 207 160 160 174 176 142 146 159 169 159 274 274 271 231 196 242 46 95 127 131 134 120 84 119 186 150 146 210 259 310 62 86 98 111 110 121 130 136 147 153 156 154 143 141 150
288 180 165 164 192 213 244 263 192 148 225 277 295 284 271 256 278 269 245 245 246 222 218 259 255 261 292 283 349 317 304 11 337 327 307 270 265 284 300 342 12 276 220 177 150 146 133 54 146 143 159 184 189 215 228 174 148 258 5 37 40 61 160 118 110 147 174 154 181 225 197 193 227 168 143 134 133 129 132 137 142 149 155 159 147 141 154 166
183 176 152 132 188 230 257 268 247 196 195 198 214 293 259 245 307 314 258 227 236 224 225 248 232 209 242 191 48 309 300 345 2 13 248 251 258 286 307 356 21 23 130 160 153 141 81 45 166 134 157 217 209 227 255 90 116 163 36 22 13 9 5 89 115 177 147 123 234 254 180 164 205 177 160 155 144 141 144 144 148 156 158 158 146 140 151 157
207 248 136 141 184 203 220 252 235 216 225 223 219 287 286 277 294 281 254 277 283 235 208 236 256 237 222 171 137 301 335 3 346 296 275 293 285 318 346 356 20 34 58 145 155 134 104 104 180 110 29 342 351 291 288 93 106 79 60 27 355 22 60 96 111 121 114 124 241 238 164 154 239 158 158 164 154 150 148 145 151 155 151 149 146 142 149 148
219 249 188 166 207 200 199 228 212 206 220 208 201 246 239 249 251 230 233 297 319 271 196 211 271 247 212 175 144 140 211 142 324 285 251 294 297 337 13 349 341 16 37 55 27 88 107 54 356 91 47 7 11 353 329 100 102 50 42 31 20 59 82 98 113 102 91 100 254 174 121 76 346 160 155 152 148 145 143 147 151 149 143 145 148 148 152 149
196 215 201 187 252 242 228 242 187 179 212 188 200 243 224 218 243 253 222 189 254 290 180 196 255 246 207 170 141 184 218 178 171 241 196 127 341 303 65 218 282 349 13 38 355 32 96 72 341 80 62 355 0 10 2 49 94 76 43 29 35 54 57 56 57 45 64 68 45 84 93 37 333 133 127 134 142 141 144 152 151 144 142 145 148 152 155 152
189 189 172 138 263 242 222 253 159 135 140 176 197 238 228 215 230 254 245 212 211 227 225 233 260 257 175 124 148 227 239 197 197 232 221 207 255 261 277 201 189 326 352 11 0 10 75 100 1 67 73 331 343 19 6 21 70 69 30 12 19 37 46 27 7 17 104 123 86 78 95 253 172 123 120 133 142 144 149 153 147 144 147 148 151 157 158 154
199 205 217 176 191 256 203 292 83 109 183 213 207 231 239 251 264 263 295 242 225 242 271 265 250 133 97 122 178 237 264 251 251 271 270 268 283 291 279 256 207 173 218 112 59 30 90 118 123 85 95 278 320 8 1 20 54 39 326 332 0 41 88 103 5 17 69 129 120 127 218 200 153 136 132 140 149 153 156 154 151 154 155 154 158 164 162 157